User: anonymous   Login
Location: Conjunto Santa Maria
(19.9513°S, 43.9599°W)
Time: 07:20:46
(UTC+00:00)
Language:

ARGOS - Orbit

View from above orbital plane
View from above orbital plane
View from above satellite
View from above satellite

Ground track
Ground track

The orbit data is extracted from the following two-line orbital elements,

1 25634U 99008A   21108.84057685 -.00000014  00000-0  13026-4 0  9993
2 25634  98.4253 139.4412 0011344 110.4453 249.7943 14.19392863146801
Epoch (UTC): 18 April 2021 20:10:25
Eccentricity: 0.0011344
inclination: 98.4253°
perigee height: 819 km
apogee height: 835 km
right ascension of ascending node: 139.4412°
argument of perigee: 110.4453°
revolutions per day: 14.19392863
mean anomaly at epoch: 249.7943°
orbit number at epoch: 14680

The dashed part of the orbit path shows where the satellite is in the earth's shadow,  

DLR